Weather in Maslovo

Russia / Kurgan Oblast     55°04′45″N   64°15′25″E
temp.,
°C
wind,
m/s
gust,
m/s
humid.,
%
clouds,
%
prec.,
mm/h
press.,
hPa
HPBL,
m
13 april, tue
tue1323:00+4nnw3494100 0.2 103856
02:00+3n33940 0.0 103941
05:00+2n33900 0.0 104025
08:00+4n23870 0.0 1041102
11:00+9ne11690 0.0 1042419
14:00+11sw21590 0.0 1041809
17:00+12sw22575 0.0 1040819
20:00+8ssw33760 0.0 103934
14 april, wed
wed1423:00+6ssw48895 0.0 1038125
02:00+5ssw49935 0.0 1037163
05:00+4sw4109356 0.0 1036177
08:00+6sw51087100 0.0 1035257
11:00+11wsw576832 0.0 1034430
14:00+14wsw56625 0.0 1032697
17:00+16w46625 0.0 1030882
20:00+12wsw34795 0.0 102947
15 april, thu
thu1523:00+10wsw34785 0.0 102955
02:00+8wsw337649 0.0 102842
05:00+7wsw33747 0.0 102829
08:00+9sw35705 0.0 1027122
11:00+14sw44535 0.0 1026423
14:00+17sw45445 0.0 1024754
17:00+17sw45415 0.0 1021817
20:00+12sw33560 0.0 102031
16 april, fri
fri1623:00+10sw33595 0.0 101936
02:00+8wsw34635 0.0 101846
05:00+7w336965 0.0 101727
08:00+10nw237019 0.0 1016106
11:00+14nnw335399 0.0 1014547
14:00+16nnw3445100 0.0 10131212
17:00+15n6557100 0.0 10131156
20:00+7ne6986100 0.0 1014382
17 april, sat
sat1723:00+5nne6894100 0.0 1015533
02:00+4nne5796100 0.1 1014682
05:00+3nne5797100 0.3 1014658
08:00+2ne6790100 0.1 1014727
11:00+2ne5679100 0.5 1014906
14:00+3ne5670100 0.2 10131079
17:00+2ne5772100 0.3 1013916
20:00+1ne4774100 0.1 1014397